When you browse on this site, cookies collect data to enhance your experience and personalize the content and advertising you see.
Visit our Privacy Policy to learn more. By continuing to use the site, you agree to this use of cookies and data.
  • In Lithuania
  • List of Countries
  • For 7 days
  • Water Temperature
  • Weather Map
  • Weather Widgets
  • user-avatar
    Login

    Hourly Weather Nova-Gorica

    Today, 6 April, Monday

    Time Temperature Precipitation Wind Pressure Humidity
    00:00 +10°C° 0 mm 7 mps 764 mmHg 58%
    01:00 +10°C° 0 mm 6 mps 764 mmHg 59%
    02:00 +10°C° 0 mm 6 mps 764 mmHg 60%
    03:00 +10°C° 0 mm 5 mps 764 mmHg 61%
    04:00 +9°C° 0 mm 5 mps 764 mmHg 62%
    05:00 +9°C° 0 mm 5 mps 764 mmHg 61%
    06:00 +10°C° 0 mm 5 mps 764 mmHg 61%
    07:00 +11°C° 0 mm 4 mps 765 mmHg 59%
    08:00 +14°C° 0 mm 5 mps 765 mmHg 50%
    09:00 +16°C° 0 mm 5 mps 765 mmHg 42%
    10:00 +19°C° 0 mm 6 mps 765 mmHg 33%
    11:00 +20°C° 0 mm 6 mps 764 mmHg 31%
    12:00 +21°C° 0 mm 6 mps 764 mmHg 29%
    13:00 +22°C° 0 mm 6 mps 764 mmHg 27%
    14:00 +21°C° 0 mm 6 mps 764 mmHg 27%
    15:00 +21°C° 0 mm 6 mps 764 mmHg 27%
    16:00 +21°C° 0 mm 6 mps 764 mmHg 27%
    17:00 +19°C° 0 mm 6 mps 764 mmHg 30%
    18:00 +16°C° 0 mm 6 mps 764 mmHg 33%
    19:00 +14°C° 0 mm 6 mps 765 mmHg 36%
    20:00 +13°C° 0 mm 6 mps 766 mmHg 40%
    21:00 +11°C° 0 mm 6 mps 766 mmHg 44%
    22:00 +10°C° 0 mm 7 mps 767 mmHg 48%
    23:00 +9°C° 0 mm 6 mps 767 mmHg 50%

    Tomorrow, 7 April, Tuesday

    Time Temperature Precipitation Wind Pressure Humidity
    00:00 +8°C° 0 mm 6 mps 767 mmHg 52%
    01:00 +8°C° 0 mm 6 mps 767 mmHg 53%
    02:00 +7°C° 0 mm 6 mps 767 mmHg 54%
    03:00 +7°C° 0 mm 5 mps 767 mmHg 54%
    04:00 +7°C° 0 mm 5 mps 767 mmHg 55%
    05:00 +7°C° 0 mm 5 mps 767 mmHg 53%
    06:00 +8°C° 0 mm 5 mps 767 mmHg 51%
    07:00 +8°C° 0 mm 5 mps 767 mmHg 50%
    08:00 +12°C° 0 mm 4 mps 767 mmHg 43%
    09:00 +14°C° 0 mm 4 mps 767 mmHg 37%
    10:00 +18°C° 0 mm 3 mps 767 mmHg 31%
    11:00 +19°C° 0 mm 3 mps 767 mmHg 29%
    12:00 +20°C° 0 mm 2 mps 767 mmHg 28%
    13:00 +21°C° 0 mm 2 mps 767 mmHg 26%
    14:00 +20°C° 0 mm 3 mps 767 mmHg 28%
    15:00 +20°C° 0 mm 4 mps 766 mmHg 30%
    16:00 +19°C° 0 mm 4 mps 766 mmHg 33%
    17:00 +17°C° 0 mm 4 mps 766 mmHg 40%
    18:00 +14°C° 0 mm 3 mps 767 mmHg 48%
    19:00 +12°C° 0 mm 2 mps 767 mmHg 55%
    20:00 +12°C° 0 mm 2 mps 767 mmHg 55%
    21:00 +10°C° 0 mm 2 mps 768 mmHg 54%
    22:00 +10°C° 0 mm 2 mps 768 mmHg 54%
    23:00 +10°C° 0 mm 3 mps 768 mmHg 54%

    Day after tomorrow, 8 April, Wednesday

    Time Temperature Precipitation Wind Pressure Humidity
    00:00 +9°C° 0 mm 3 mps 768 mmHg 54%
    01:00 +9°C° 0 mm 3 mps 768 mmHg 55%
    02:00 +8°C° 0 mm 3 mps 767 mmHg 55%
    03:00 +8°C° 0 mm 3 mps 767 mmHg 54%
    04:00 +8°C° 0 mm 3 mps 767 mmHg 54%
    05:00 +8°C° 0 mm 3 mps 767 mmHg 52%
    06:00 +9°C° 0 mm 3 mps 767 mmHg 50%
    07:00 +8°C° 0 mm 4 mps 766 mmHg 48%
    08:00 +12°C° 0 mm 3 mps 766 mmHg 40%
    09:00 +16°C° 0 mm 3 mps 766 mmHg 32%
    10:00 +19°C° 0 mm 3 mps 766 mmHg 23%
    11:00 +20°C° 0 mm 3 mps 765 mmHg 22%
    12:00 +21°C° 0 mm 3 mps 765 mmHg 21%
    13:00 +22°C° 0 mm 3 mps 764 mmHg 19%
    14:00 +22°C° 0 mm 3 mps 764 mmHg 21%
    15:00 +21°C° 0 mm 2 mps 763 mmHg 23%
    16:00 +21°C° 0 mm 2 mps 763 mmHg 24%
    17:00 +18°C° 0 mm 2 mps 763 mmHg 31%
    18:00 +16°C° 0 mm 2 mps 763 mmHg 38%
    19:00 +14°C° 0 mm 2 mps 763 mmHg 45%
    20:00 +13°C° 0 mm 2 mps 763 mmHg 46%
    21:00 +13°C° 0 mm 1 mps 764 mmHg 48%
    22:00 +12°C° 0 mm 1 mps 764 mmHg 50%
    23:00 +10°C° 0 mm 2 mps 764 mmHg 51%

    9 April, Thursday

    Time Temperature Precipitation Wind Pressure Humidity
    00:00 +10°C° 0 mm 2 mps 764 mmHg 52%
    01:00 +9°C° 0 mm 2 mps 764 mmHg 53%
    02:00 +9°C° 0 mm 2 mps 763 mmHg 54%
    03:00 +9°C° 0 mm 2 mps 763 mmHg 55%
    04:00 +8°C° 0 mm 2 mps 763 mmHg 55%
    05:00 +9°C° 0 mm 2 mps 763 mmHg 54%
    06:00 +10°C° 0 mm 2 mps 763 mmHg 53%
    07:00 +10°C° 0 mm 2 mps 763 mmHg 52%
    08:00 +14°C° 0 mm 1 mps 762 mmHg 45%
    09:00 +18°C° 0 mm 1 mps 762 mmHg 38%
    10:00 +21°C° 0 mm 1 mps 762 mmHg 31%
    11:00 +22°C° 0 mm 1 mps 762 mmHg 29%
    12:00 +21°C° 0 mm 2 mps 762 mmHg 28%
    13:00 +23°C° 0 mm 2 mps 761 mmHg 26%
    14:00 +21°C° 0 mm 3 mps 761 mmHg 27%
    15:00 +21°C° 0 mm 3 mps 761 mmHg 29%
    16:00 +21°C° 0 mm 3 mps 760 mmHg 30%
    17:00 +19°C° 0 mm 2 mps 760 mmHg 37%
    18:00 +16°C° 0 mm 2 mps 760 mmHg 44%
    19:00 +14°C° 0 mm 1 mps 760 mmHg 51%
    20:00 +14°C° 0 mm 1 mps 761 mmHg 51%
    21:00 +13°C° 0 mm 1 mps 761 mmHg 51%
    22:00 +13°C° 0 mm 1 mps 762 mmHg 51%
    23:00 +13°C° 0 mm 1 mps 762 mmHg 51%

    10 April, Friday

    Time Temperature Precipitation Wind Pressure Humidity
    00:00 +12°C° 0 mm 1 mps 762 mmHg 52%
    01:00 +12°C° 0 mm 1 mps 762 mmHg 52%
    02:00 +12°C° 0 mm 1 mps 761 mmHg 52%
    03:00 +12°C° 0 mm 2 mps 761 mmHg 52%
    04:00 +10°C° 0 mm 2 mps 761 mmHg 52%
    05:00 +12°C° 0 mm 2 mps 761 mmHg 51%
    06:00 +13°C° 0 mm 2 mps 761 mmHg 50%
    07:00 +14°C° 0 mm 2 mps 762 mmHg 49%
    08:00 +18°C° 0 mm 1 mps 761 mmHg 43%
    09:00 +21°C° 0 mm 1 mps 761 mmHg 38%
    10:00 +24°C° 0 mm 1 mps 761 mmHg 32%
    11:00 +24°C° 0 mm 2 mps 761 mmHg 31%
    12:00 +25°C° 0 mm 2 mps 760 mmHg 30%
    13:00 +25°C° 0 mm 2 mps 760 mmHg 28%
    14:00 +25°C° 0 mm 3 mps 760 mmHg 29%
    15:00 +25°C° 0 mm 3 mps 759 mmHg 30%
    16:00 +24°C° 0 mm 3 mps 759 mmHg 31%
    17:00 +21°C° 0 mm 3 mps 759 mmHg 37%
    18:00 +19°C° 0 mm 2 mps 759 mmHg 42%
    19:00 +16°C° 0 mm 1 mps 759 mmHg 47%
    20:00 +16°C° 0 mm 1 mps 759 mmHg 47%
    21:00 +16°C° 0 mm 1 mps 760 mmHg 47%
    22:00 +15°C° 0 mm 1 mps 760 mmHg 47%
    23:00 +15°C° 0 mm 1 mps 760 mmHg 48%

    11 April, Saturday

    Time Temperature Precipitation Wind Pressure Humidity
    00:00 +14°C° 0 mm 1 mps 760 mmHg 49%
    01:00 +14°C° 0 mm 1 mps 760 mmHg 50%
    02:00 +14°C° 0 mm 1 mps 760 mmHg 52%
    03:00 +13°C° 0 mm 1 mps 760 mmHg 53%
    04:00 +13°C° 0 mm 1 mps 760 mmHg 54%
    05:00 +14°C° 0 mm 1 mps 760 mmHg 54%
    06:00 +15°C° 0 mm 1 mps 760 mmHg 53%
    07:00 +16°C° 0 mm 1 mps 759 mmHg 52%
    08:00 +19°C° 0 mm 1 mps 759 mmHg 44%
    09:00 +20°C° 0 mm 2 mps 759 mmHg 37%
    10:00 +23°C° 0 mm 2 mps 759 mmHg 30%
    11:00 +23°C° 0 mm 2 mps 759 mmHg 30%
    12:00 +24°C° 0 mm 2 mps 759 mmHg 29%
    13:00 +24°C° 0 mm 3 mps 758 mmHg 29%
    14:00 +24°C° 0 mm 3 mps 758 mmHg 31%
    15:00 +22°C° 0 mm 3 mps 758 mmHg 34%
    16:00 +22°C° 0 mm 3 mps 757 mmHg 37%
    17:00 +20°C° 0 mm 3 mps 757 mmHg 44%
    18:00 +17°C° 0 mm 3 mps 758 mmHg 52%
    19:00 +14°C° 0 mm 3 mps 758 mmHg 60%
    20:00 +14°C° 0 mm 3 mps 758 mmHg 62%
    21:00 +13°C° 0 mm 3 mps 758 mmHg 63%
    22:00 +12°C° 0 mm 3 mps 759 mmHg 65%
    23:00 +13°C° 0 mm 2 mps 759 mmHg 65%
    Show more